• In Czech Republic
  • List of Countries
  • For 7 days
  • Water Temperature
  • Satellite Maps
  • Weather Map
  • Weather Widgets
  • user-avatar
    Login

    Hourly Weather Escaldes-Engordany

    Today, 19 October, Thursday

    Time Temperature Precipitation Wind Pressure Humidity
    00:00 +9°C° 0 mm 2 mps 635 mmHg 95%
    01:00 +8°C° 0.8 mm 2 mps 635 mmHg 95%
    02:00 +8°C° 0.8 mm 2 mps 635 mmHg 95%
    03:00 +9°C° 0.8 mm 1 mps 635 mmHg 96%
    04:00 +9°C° 0.5 mm 1 mps 635 mmHg 96%
    05:00 +9°C° 0.5 mm 1 mps 635 mmHg 95%
    06:00 +8°C° 0 mm 1 mps 635 mmHg 96%
    07:00 +9°C° 0.1 mm 1 mps 635 mmHg 92%
    08:00 +9°C° 0.1 mm 1 mps 636 mmHg 87%
    09:00 +10°C° 0.1 mm 1 mps 636 mmHg 83%
    10:00 +10°C° 0.4 mm 1 mps 636 mmHg 81%
    11:00 +11°C° 0.4 mm 1 mps 636 mmHg 79%
    12:00 +11°C° 0 mm 1 mps 636 mmHg 79%
    13:00 +10°C° 1.7 mm 1 mps 636 mmHg 83%
    14:00 +9°C° 1.7 mm 2 mps 635 mmHg 87%
    15:00 +8°C° 1.7 mm 2 mps 635 mmHg 91%
    16:00 +8°C° 1.1 mm 2 mps 635 mmHg 92%
    17:00 +8°C° 1.1 mm 2 mps 635 mmHg 93%
    18:00 +8°C° 1.1 mm 2 mps 635 mmHg 94%
    19:00 +8°C° 0.1 mm 2 mps 636 mmHg 93%
    20:00 +8°C° 0.1 mm 2 mps 636 mmHg 93%
    21:00 +9°C° 0.1 mm 1 mps 636 mmHg 92%
    22:00 +9°C° 0 mm 1 mps 637 mmHg 92%
    23:00 +8°C° 0 mm 1 mps 637 mmHg 91%

    Tomorrow, 20 October, Friday

    Time Temperature Precipitation Wind Pressure Humidity
    00:00 +8°C° 0 mm 1 mps 637 mmHg 91%
    01:00 +8°C° 0 mm 1 mps 637 mmHg 90%
    02:00 +8°C° 0 mm 1 mps 637 mmHg 89%
    03:00 +8°C° 0 mm 1 mps 637 mmHg 88%
    04:00 +8°C° 0 mm 1 mps 638 mmHg 88%
    05:00 +8°C° 0 mm 1 mps 638 mmHg 87%
    06:00 +8°C° 0 mm 1 mps 638 mmHg 86%
    07:00 +9°C° 0 mm 1 mps 640 mmHg 81%
    08:00 +11°C° 0 mm 1 mps 641 mmHg 75%
    09:00 +12°C° 0 mm 0 mps 642 mmHg 69%
    10:00 +14°C° 0 mm 1 mps 642 mmHg 66%
    11:00 +15°C° 0 mm 1 mps 643 mmHg 62%
    12:00 +16°C° 0 mm 2 mps 643 mmHg 59%
    13:00 +16°C° 0 mm 2 mps 643 mmHg 61%
    14:00 +16°C° 0 mm 2 mps 643 mmHg 63%
    15:00 +15°C° 0 mm 2 mps 642 mmHg 65%
    16:00 +14°C° 0 mm 2 mps 642 mmHg 73%
    17:00 +12°C° 0 mm 2 mps 642 mmHg 81%
    18:00 +10°C° 0 mm 1 mps 641 mmHg 89%
    19:00 +10°C° 0 mm 1 mps 641 mmHg 88%
    20:00 +10°C° 0 mm 1 mps 641 mmHg 88%
    21:00 +9°C° 0 mm 1 mps 641 mmHg 88%
    22:00 +9°C° 0 mm 1 mps 641 mmHg 87%
    23:00 +9°C° 0 mm 1 mps 641 mmHg 86%

    Day after tomorrow, 21 October, Saturday

    Time Temperature Precipitation Wind Pressure Humidity
    00:00 +8°C° 0 mm 1 mps 641 mmHg 84%
    01:00 +8°C° 0 mm 1 mps 641 mmHg 83%
    02:00 +8°C° 0 mm 1 mps 641 mmHg 83%
    03:00 +8°C° 0 mm 1 mps 641 mmHg 82%
    04:00 +8°C° 0 mm 1 mps 641 mmHg 79%
    05:00 +8°C° 0 mm 1 mps 641 mmHg 77%
    06:00 +8°C° 0 mm 1 mps 641 mmHg 74%
    07:00 +10°C° 0 mm 1 mps 642 mmHg 70%
    08:00 +12°C° 0 mm 1 mps 643 mmHg 65%
    09:00 +13°C° 0 mm 1 mps 644 mmHg 61%
    10:00 +14°C° 0 mm 1 mps 644 mmHg 60%
    11:00 +15°C° 0 mm 2 mps 644 mmHg 59%
    12:00 +16°C° 0 mm 2 mps 645 mmHg 59%
    13:00 +15°C° 0.1 mm 2 mps 644 mmHg 63%
    14:00 +14°C° 0.1 mm 2 mps 644 mmHg 68%
    15:00 +13°C° 0.1 mm 2 mps 644 mmHg 73%
    16:00 +12°C° 0.2 mm 1 mps 643 mmHg 79%
    17:00 +11°C° 0.2 mm 1 mps 643 mmHg 85%
    18:00 +10°C° 0.2 mm 1 mps 643 mmHg 91%
    19:00 +9°C° 0.1 mm 1 mps 643 mmHg 92%
    20:00 +9°C° 0.1 mm 1 mps 644 mmHg 93%
    21:00 +8°C° 0.1 mm 2 mps 644 mmHg 93%
    22:00 +7°C° 0.1 mm 2 mps 644 mmHg 94%
    23:00 +8°C° 0.1 mm 1 mps 644 mmHg 94%

    22 October, Sunday

    Time Temperature Precipitation Wind Pressure Humidity
    00:00 +8°C° 0.1 mm 1 mps 644 mmHg 95%
    01:00 +7°C° 0 mm 1 mps 643 mmHg 94%
    02:00 +6°C° 0 mm 2 mps 643 mmHg 94%
    03:00 +5°C° 0 mm 2 mps 643 mmHg 94%
    04:00 +5°C° 0 mm 2 mps 643 mmHg 93%
    05:00 +4°C° 0 mm 2 mps 643 mmHg 91%
    06:00 +4°C° 0 mm 2 mps 643 mmHg 90%
    07:00 +5°C° 0 mm 2 mps 643 mmHg 83%
    08:00 +6°C° 0 mm 2 mps 644 mmHg 76%
    09:00 +7°C° 0 mm 3 mps 644 mmHg 69%
    10:00 +8°C° 0 mm 3 mps 644 mmHg 63%
    11:00 +9°C° 0 mm 3 mps 644 mmHg 58%
    12:00 +10°C° 0 mm 3 mps 645 mmHg 52%
    13:00 +10°C° 0 mm 3 mps 644 mmHg 52%
    14:00 +10°C° 0 mm 3 mps 644 mmHg 53%
    15:00 +9°C° 0 mm 3 mps 644 mmHg 53%
    16:00 +8°C° 0 mm 3 mps 643 mmHg 61%
    17:00 +5°C° 0 mm 3 mps 643 mmHg 68%
    18:00 +4°C° 0 mm 2 mps 643 mmHg 75%
    19:00 +4°C° 0 mm 2 mps 643 mmHg 75%
    20:00 +4°C° 0 mm 2 mps 643 mmHg 75%
    21:00 +2°C° 0 mm 3 mps 643 mmHg 76%
    22:00 +3°C° 0 mm 2 mps 643 mmHg 75%
    23:00 +3°C° 0 mm 2 mps 643 mmHg 74%

    23 October, Monday

    Time Temperature Precipitation Wind Pressure Humidity
    00:00 +3°C° 0 mm 2 mps 643 mmHg 73%
    01:00 +3°C° 0 mm 2 mps 643 mmHg 72%
    02:00 +2°C° 0 mm 2 mps 643 mmHg 71%
    03:00 +2°C° 0 mm 2 mps 643 mmHg 70%
    04:00 +2°C° 0 mm 2 mps 643 mmHg 69%
    05:00 +2°C° 0 mm 2 mps 643 mmHg 68%
    06:00 +2°C° 0 mm 2 mps 643 mmHg 67%
    07:00 +4°C° 0 mm 2 mps 644 mmHg 61%
    08:00 +7°C° 0 mm 2 mps 645 mmHg 55%
    09:00 +9°C° 0 mm 2 mps 646 mmHg 48%
    10:00 +10°C° 0 mm 2 mps 646 mmHg 46%
    11:00 +13°C° 0 mm 2 mps 646 mmHg 44%
    12:00 +14°C° 0 mm 2 mps 646 mmHg 41%
    13:00 +14°C° 0 mm 2 mps 646 mmHg 44%
    14:00 +13°C° 0 mm 2 mps 646 mmHg 46%
    15:00 +13°C° 0 mm 2 mps 645 mmHg 49%
    16:00 +10°C° 0 mm 2 mps 645 mmHg 57%
    17:00 +8°C° 0 mm 2 mps 644 mmHg 65%
    18:00 +6°C° 0 mm 2 mps 644 mmHg 73%
    19:00 +6°C° 0 mm 2 mps 644 mmHg 70%
    20:00 +6°C° 0 mm 2 mps 644 mmHg 67%
    21:00 +6°C° 0 mm 2 mps 644 mmHg 65%
    22:00 +6°C° 0 mm 2 mps 644 mmHg 63%
    23:00 +6°C° 0 mm 2 mps 644 mmHg 61%

    24 October, Tuesday

    Time Temperature Precipitation Wind Pressure Humidity
    00:00 +6°C° 0 mm 2 mps 644 mmHg 59%
    01:00 +6°C° 0 mm 2 mps 644 mmHg 59%
    02:00 +6°C° 0 mm 2 mps 643 mmHg 59%
    03:00 +6°C° 0 mm 2 mps 643 mmHg 59%
    04:00 +6°C° 0 mm 2 mps 643 mmHg 60%
    05:00 +6°C° 0 mm 2 mps 643 mmHg 60%
    06:00 +6°C° 0 mm 2 mps 643 mmHg 60%
    07:00 +10°C° 0 mm 1 mps 644 mmHg 55%
    08:00 +12°C° 0 mm 1 mps 645 mmHg 50%
    09:00 +15°C° 0 mm 1 mps 646 mmHg 45%
    10:00 +16°C° 0 mm 1 mps 647 mmHg 42%
    11:00 +18°C° 0 mm 1 mps 647 mmHg 40%
    12:00 +20°C° 0 mm 1 mps 647 mmHg 37%
    13:00 +19°C° 0 mm 1 mps 647 mmHg 39%
    14:00 +19°C° 0 mm 1 mps 646 mmHg 41%
    15:00 +18°C° 0 mm 1 mps 646 mmHg 44%
    16:00 +15°C° 0 mm 1 mps 645 mmHg 51%
    17:00 +13°C° 0 mm 1 mps 645 mmHg 58%
    18:00 +11°C° 0 mm 1 mps 644 mmHg 65%
    19:00 +11°C° 0 mm 1 mps 644 mmHg 63%
    20:00 +11°C° 0 mm 1 mps 644 mmHg 61%
    21:00 +10°C° 0 mm 1 mps 644 mmHg 59%
    22:00 +10°C° 0 mm 1 mps 644 mmHg 57%
    23:00 +10°C° 0 mm 1 mps 644 mmHg 55%
    Show more